Location: Loubalie
(44.4782°N, 2.1414°E)
Time: 13:27:25
(UTC+00:00)

Daily predictions for brighter satellites

Satellite Brightness Start Highest point End
(mag) Time Altitude Azimuth Time Altitude Azimuth Time Altitude Azimuth
Cosmos 1624 Rocket 4.0 19:27:59 10° SSW 19:33:08 79° ESE 19:38:19 10° NNE
Cosmos 1862 4.2 19:32:20 10° NNW 19:35:44 44° W 19:39:07 10° SSW
Cosmos 1980 Rocket 3.5 19:31:05 10° N 19:35:49 26° NE 19:40:33 10° ESE
GEOS 3 Rocket 4.1 19:35:08 10° SSE 19:40:24 65° SW 19:45:45 10° NW
USA 229 DEB 4.2 19:34:08 10° NW 19:41:41 74° NE 19:49:59 10° SE
USA 229 4.2 19:34:11 10° NW 19:41:44 73° NE 19:50:03 10° SE
SL-24 R/B 4.1 19:37:44 10° NNE 19:42:17 81° ESE 19:46:34 10° S
Okean O Rocket 3.1 19:39:22 10° ESE 19:42:37 21° ENE 19:45:52 10° NNE
CZ-4 R/B 1.1 19:39:18 10° SSE 19:42:55 75° ENE 19:46:33 10° N
ISS -2.8 19:40:31 10° SSW 19:43:24 28° SE 19:46:19 10° ENE
CZ-4B R/B 3.9 19:41:27 10° SSE 19:45:26 90° W 19:49:29 10° NNW
CZ-4C R/B 2.0 19:45:01 10° S 19:48:42 38° ESE 19:53:12 10° NE
Meteor 2-3 Rocket 4.0 19:44:07 10° N 19:49:37 54° ENE 19:55:09 10° SSE
CSL-04 Rocket 4.1 19:46:03 10° S 19:51:32 69° WSW 19:57:00 10° NNW
Cosmos 1833 Rocket 2.8 19:46:13 10° SSW 19:51:49 88° WNW 19:57:28 10° NNE
CZ-4B DEB 4.2 19:46:34 10° SSE 19:52:03 78° ENE 19:57:36 10° NNW
Cosmos 292 Rocket 4.1 19:48:00 10° NNW 19:52:40 52° ENE 19:57:17 10° SE
ATLAS 2AS CENTAUR R/B 3.3 19:46:16 10° SW 19:53:11 65° NW 19:59:59 10° NNE
CZ-4B R/B 3.4 19:49:00 10° SSE 19:54:33 60° ENE 20:00:06 10° N
Okean-O 3.7 19:53:00 10° SE 19:56:39 28° ENE 20:00:24 10° N
Cosmos 1455 Rocket 4.0 19:56:48 10° SSE 20:00:35 29° E 20:04:23 10° NNE
Gbstr 26 Del rocket 4.0 19:57:00 10° WNW 20:02:10 48° NNE 20:06:25 10° E
Spot 2 Rocket 4.1 19:57:48 11° SE 20:02:18 39° ENE 20:06:57 10° N
MetOp-B 4.2 19:57:11 10° SSE 20:02:30 72° ENE 20:07:50 10° N
SL-4 R/B 1.8 19:59:18 10° WNW 20:03:07 77° SSW 20:06:19 15° SE
Cosmos 2173 Rocket 4.0 20:01:22 10° S 20:07:25 69° E 20:13:35 10° NNE
Okean 1 Rocket 3.0 20:03:14 10° S 20:07:33 69° E 20:11:58 10° NNE
Cosmos 332 Rocket 4.2 20:03:28 10° NNW 20:08:11 63° WSW 20:12:51 10° S
ADEOS 3.6 20:03:07 10° SSE 20:08:17 71° ENE 20:13:30 10° N
PAYLOAD B 4.4 20:09:46 10° S 20:15:15 78° WSW 20:20:49 10° NNW
Helios 1A Rocket 2.7 20:13:21 10° N 20:16:29 62° WNW 20:19:35 10° SSW
Meteor 1-27 4.5 20:15:50 10° SSE 20:21:14 48° E 20:26:37 10° NNE
ERS-1 Rocket 3.3 20:18:11 10° S 20:23:09 65° WSW 20:28:09 10° NNW
SKYMED 3 4.4 20:22:14 10° N 20:26:11 83° WNW 20:30:08 10° SSW
SJ 16-02 4.1 20:26:36 10° WNW 20:28:22 12° W 20:30:08 10° WSW
ATLAS 3B R/B 3.0 20:21:18 10° NW 20:29:07 85° SW 20:34:58 17° SSE
Cosmos 2082 Rocket 2.7 20:24:55 10° S 20:30:10 39° ESE 20:35:26 10° NE
Cosmos 1452 Rocket 3.4 20:25:01 10° S 20:30:11 69° ESE 20:35:24 10° NNE
DELTA 2 R/B (1) 4.3 20:25:19 10° SW 20:30:12 32° SSE 20:33:42 17° ESE
DEBRIS 3.1 20:27:51 10° WSW 20:30:26 69° NNW 20:36:56 10° ENE
Cosmos 1741 Rocket 4.0 20:27:35 10° NNW 20:32:55 77° ENE 20:36:43 19° SSE
SL-08 R/B 3.3 20:29:44 10° NNE 20:34:37 88° W 20:39:22 10° SSW
Sich 1 Rocket 3.8 20:30:50 10° SSW 20:35:10 69° W 20:39:32 10° N
Cosmos 1802 Rocket 3.9 20:30:51 10° S 20:37:03 80° E 20:43:14 10° N
Cosmos 1331 Rocket 4.2 20:31:52 10° SSW 20:37:05 74° WNW 20:42:20 10° NNE
Cosmos 968 Rocket 4.0 20:33:13 10° NNW 20:38:22 58° WSW 20:42:54 13° S
CZ-4B R/B 4.3 20:36:55 21° ESE 20:39:20 33° ENE 20:43:36 10° N
YAOGAN 11 4.0 20:36:37 10° NNE 20:41:02 72° ESE 20:45:19 11° S
Cosmos 1302 Rocket 4.0 20:41:25 10° S 20:46:28 58° ESE 20:51:33 10° NNE
MOS 1-B 4.3 20:44:42 18° SSE 20:49:10 88° WSW 20:55:01 10° NNW
CZ-2C R/B 3.9 20:49:47 17° ENE 20:49:47 17° ENE 20:51:34 10° NNE
Cosmos 1697 Rocket 3.6 20:46:11 10° NW 20:51:26 42° WSW 20:56:07 13° S
Terra 3.0 20:47:07 10° SSW 20:51:28 38° W 20:55:51 10° NNW
NOSS 3-3 (A) 3.8 20:47:50 10° S 20:52:35 44° ESE 20:58:06 10° NE
Cosmos 2151 4.4 20:49:41 10° NNE 20:52:55 22° ENE 20:53:43 21° E
Milstar 3 4.2 20:47:54 10° SW 20:53:30 24° S 20:56:26 20° SSE
Meteor 2-12 Rocket 4.4 20:47:40 10° N 20:53:46 71° E 20:57:39 23° SSE
COSMOS 2406 4.0 20:54:42 26° SE 20:56:18 30° ESE 21:01:15 10° NE
SL-16 R/B 3.6 20:52:50 10° N 20:57:32 26° NE 21:00:34 17° E
Cosmos 2228 2.8 20:58:22 25° S 21:00:43 81° E 21:04:50 10° N
USA 186 2.0 21:00:42 39° SW 21:01:14 47° W 21:03:52 10° NNW
USA 306 2.4 20:58:29 10° SW 21:00:59 43° SW 21:00:59 43° SW
Cosmos 1743 2.6 20:59:23 10° NNW 21:02:20 53° W 21:03:16 35° SSW
Cosmos 1782 2.6 21:00:48 24° SSW 21:02:44 73° W 21:06:16 10° N
SPOT 3 Rocket 3.5 21:02:10 30° SSE 21:04:45 71° ENE 21:09:53 10° N
Cosmos 44 Rocket 4.3 21:04:23 10° SW 21:09:19 51° NW 21:14:23 10° NNE
Cosmos 2333 Rocket 3.5 21:08:04 10° N 21:13:00 29° NE 21:15:41 20° E
Cosmos 1626 Rocket 3.8 21:09:25 10° N 21:13:40 51° ENE 21:14:41 41° ESE
Cosmos 1607 3.9 21:07:45 10° SW 21:13:54 87° WNW 21:20:12 10° NE
CZ-4B R/B 2.2 21:13:31 63° SSE 21:13:59 84° ENE 21:17:23 10° NNW
Okean O Rocket 2.7 21:15:58 19° SSW 21:18:32 38° W 21:22:34 10° NNW
Cosmos 2233 Rocket 4.1 21:14:28 14° SSW 21:19:56 77° W 21:26:08 10° N
ISS -2.8 21:16:49 10° W 21:20:04 49° NNW 21:23:21 10° NE
Cosmos 1980 Rocket 2.6 21:14:35 10° NNW 21:20:10 56° WSW 21:23:05 27° S
NOSS 3-3 (C) 3.6 21:17:31 20° SSW 21:21:02 61° ESE 21:26:56 10° NE
Cosmos 1933 3.7 21:27:23 42° ENE 21:27:23 42° ENE 21:30:42 10° NNE
USA 305 2.7 21:23:06 10° NW 21:27:06 57° NNE 21:27:31 53° ENE
IRS-1C Rocket 4.0 21:25:22 38° SSE 21:27:29 88° ENE 21:32:47 10° NNW
Geosat 4.1 21:27:08 10° NE 21:32:01 50° ESE 21:32:48 46° SE
Okean-O 4.2 21:30:19 17° SW 21:32:52 29° W 21:36:41 10° NW
Tsikada Rocket 4.2 21:26:55 10° NNW 21:33:01 65° W 21:36:32 26° SSW
BREEZE-M DEB (TANK) 4.2 21:30:02 10° WNW 21:33:41 49° SSW 21:36:33 33° SSE
Ariane Rocket 2.9 21:33:20 41° S 21:35:06 81° WSW 21:40:12 10° NNW
Cosmos 2098 Rocket 3.9 21:34:55 39° ESE 21:35:18 39° E 21:39:40 10° NNE
CZ-4C R/B 3.7 21:33:03 10° W 21:36:55 30° NW 21:41:43 10° NNE
IRS-P2 Rocket 4.5 21:35:34 45° SSE 21:37:14 83° ENE 21:42:31 10° NNW
SL-4 R/B 4.2 21:38:01 10° W 21:39:46 13° SW 21:39:46 13° SW
Cosmos 2360 Rocket 3.4 21:41:22 10° N 21:46:22 31° NE 21:48:24 24° E
Cosmos 2084 Rocket 3.2 21:42:34 10° NW 21:46:48 83° SW 21:47:04 77° S
Cosmos 1437 Rocket 2.8 21:48:46 61° NNE 21:48:46 61° NNE 21:51:47 10° NNE
Gbstr 26 Del rocket 3.3 21:44:01 10° WNW 21:48:34 48° SW 21:48:34 48° SW
Cosmos 1544 Rocket 3.7 21:49:36 51° SW 21:50:35 70° W 21:54:55 10° N
USA 234 3.5 21:51:28 10° ENE 21:57:36 41° SE 21:57:36 41° SE
Cosmos 2237 4.5 21:54:18 10° NNW 21:59:56 60° WSW 22:01:26 45° SSW
Cosmos 2219 Rocket 3.7 21:58:25 10° N 22:03:09 27° NE 22:05:14 22° E
BREEZE-M DEB (TANK) 4.1 22:03:57 10° WNW 22:04:53 17° NW 22:04:53 17° NW
Cosmos 1805 4.2 22:03:10 10° N 22:05:16 35° N 22:05:16 35° N
Cosmos 1758 Rocket 4.3 22:04:01 10° NNW 22:08:11 45° W 22:08:49 42° WSW
Cosmos 1777 Rocket 4.4 22:05:23 10° N 22:10:28 49° ENE 22:11:10 46° E
Cosmos 2082 Rocket 3.7 22:09:04 10° WSW 22:14:15 35° NW 22:19:29 10° N
Cosmos 2322 Rocket 2.6 22:09:16 10° NNW 22:14:47 51° ENE 22:15:56 44° E
DELTA 2 R/B (1) 4.2 22:10:40 10° WSW 22:14:26 39° SW 22:14:26 39° SW
Cosmos 1464 Rocket 3.8 22:18:24 53° S 22:19:59 90° E 22:26:11 10° N
Cosmos 1375 Rocket 4.5 22:18:45 33° SW 22:21:56 87° WNW 22:28:33 10° NNE
Cosmos 1486 Rocket 3.9 22:18:19 10° NNW 22:23:36 73° ENE 22:24:02 68° ESE
Cosmos 1825 Rocket 3.7 22:19:45 10° N 22:23:40 67° NNE 22:23:40 67° NNE
Cosmos 1953 Rocket 4.3 22:22:18 10° N 22:25:57 42° NE 22:25:57 42° NE
ALOS 2 4.1 22:27:20 27° ENE 22:27:20 27° ENE 22:30:53 10° N
Cosmos 2058 Rocket 4.5 22:28:26 27° ENE 22:28:26 27° ENE 22:31:08 10° NNE
Meteor 1-5 Rocket 4.2 22:21:36 10° NNW 22:27:19 84° W 22:28:14 65° S
ARIANE 5 R/B 3.8 22:27:36 32° ENE 22:27:36 32° ENE 22:31:22 10° N
Cosmos 220 Rocket 4.3 22:29:24 58° NNW 22:29:24 58° NNW 22:32:51 10° NNE
Cosmos 2151 4.2 22:26:05 10° NNW 22:29:43 31° W 22:29:47 31° W
Cosmos 1602 Rocket 4.4 22:29:32 10° NNW 22:33:31 41° W 22:33:31 41° W
Cosmos 2278 3.5 22:29:22 10° NNW 22:35:06 83° WSW 22:35:41 72° S
COSMOS 2406 4.2 22:36:39 19° WSW 22:40:23 44° WNW 22:45:53 10° NNE
SL-16 R/B 2.4 22:36:25 10° NNW 22:41:59 58° WSW 22:42:24 56° SW
Cosmos 1092 Rocket 4.0 22:38:43 10° N 22:44:50 63° E 22:45:38 57° ESE
Helios 1A 3.7 22:41:05 10° N 22:44:22 47° NW 22:44:22 47° NW
Cosmos-2242 3.9 22:51:19 42° NNE 22:51:19 42° NNE 22:54:12 10° NNE
CZ-2C R/B 4.2 22:46:36 10° NNE 22:50:07 52° NE 22:50:07 52° NE
Helios 1B rocket 3.8 22:55:06 31° NNW 22:55:06 31° NNW 22:57:07 10° NNW
Cosmos 2034 Rocket 4.0 22:53:27 57° SSW 22:54:46 76° W 23:01:09 10° N
ISS -1.4 22:54:37 10° WNW 22:57:24 23° N 22:57:24 23° N
Cosmos 2333 Rocket 2.6 22:52:02 10° NW 22:57:31 49° WSW 22:57:41 49° WSW
CZ-2C R/B 4.2 22:56:34 22° E 22:57:38 24° ENE 23:01:45 10° NNE
Cosmos 1833 4.0 23:04:37 85° SE 23:04:42 85° ESE 23:10:23 10° NNE
Meteor 2-2 Rocket 4.1 23:09:39 85° SSE 23:09:48 87° E 23:15:33 10° N
Cosmos 468 Rocket 4.5 23:11:08 50° ENE 23:11:08 50° ENE 23:15:31 10° NNE
Cosmos 2221 4.2 23:14:13 25° NE 23:14:13 25° NE 23:16:32 10° NNE
Cosmos 2297 Rocket 4.2 23:18:41 15° E 23:18:41 15° E 23:21:00 10° ENE
Cosmos 540 Rocket 3.5 23:18:15 72° NW 23:18:15 72° NW 23:23:18 10° NNE
Cosmos 1634 Rocket 3.8 23:22:44 71° SW 23:23:22 80° W 23:29:35 10° N
Cosmos 2279 Rocket 3.8 23:25:15 72° SE 23:25:43 76° E 23:31:59 10° N
Cosmos 2333 4.4 23:20:35 10° NNW 23:25:59 60° W 23:25:59 60° W
NOSS 3-4 (A) 3.9 23:21:46 10° NW 23:28:36 64° WSW 23:29:36 59° SSW
NOSS 3-4 (C) 3.9 23:22:22 10° NW 23:29:14 65° WSW 23:30:16 59° SSW
Cosmos 1898 Rocket 4.2 23:25:19 10° N 23:30:15 43° ENE 23:30:35 42° ENE
Cosmos 2360 Rocket 2.8 23:25:07 10° NW 23:30:08 45° W 23:30:08 45° W
RESURS DK-1 4.2 23:29:07 10° N 23:32:11 24° NE 23:32:11 24° NE
USA 234 3.5 23:34:20 10° NE 23:40:49 66° NNW 23:44:53 24° WSW
Meteor 1-11 Rocket 4.2 23:37:54 10° N 23:43:27 50° ENE 23:43:52 49° E
Cosmos 1763 Rocket 4.4 23:43:38 38° W 23:44:25 40° WNW 23:49:24 10° N
Meteor 1-10 Rocket 4.5 23:46:38 58° E 23:46:43 58° E 23:52:31 10° NNE
Cosmos 2219 Rocket 2.5 23:41:53 10° NNW 23:46:54 53° W 23:46:54 53° W
ARGOS Delta rocket 4.3 23:42:39 10° N 23:47:34 58° WNW 23:47:34 58° WNW
Cosmos 1812 Rocket 4.5 23:48:46 44° NE 23:48:46 44° NE 23:51:58 10° NNE
